FW8494 Weather Reports


Display with metric or nautical units.
time (UTC)temp
F
wind
direction
speed
MPH
gust
MPH
rain 1hr
in
rain 24hr
in
rain mn
in
humidity
%
barometer
mb
20260503004550 66 5 4.0 0.0 0.00 0.00 0.00 32 1011.3
20260503003048 66 47 6.0 0.0 0.00 0.00 0.00 31 1011.3
20260503001647 66 44 3.0 0.0 0.00 0.00 0.00 32 1011.5
20260503000045 65 45 3.0 0.0 0.00 0.00 0.00 32 1011.6
20260502234552 66 322 4.0 0.0 0.00 0.00 0.00 32 1011.8
20260502233044 65 207 4.0 0.0 0.00 0.00 0.00 32 1011.9
20260502231544 66 291 3.0 0.0 0.00 0.00 0.00 32 1012.0
20260502230045 65 71 3.0 0.0 0.00 0.00 0.00 33 1012.0
20260502224547 67 150 4.0 0.0 0.00 0.00 0.00 32 1012.2
20260502223043 68 306 3.0 0.0 0.00 0.00 0.00 31 1012.5
20260502221539 67 247 6.0 0.0 0.00 0.00 0.00 31 1012.7
20260502220039 66 23 2.0 0.0 0.00 0.00 0.00 32 1012.9
20260502214553 67 309 5.0 0.0 0.00 0.00 0.00 31 1013.2
20260502213036 67 248 4.0 0.0 0.00 0.00 0.00 33 1013.3
20260502211536 67 327 7.0 0.0 0.00 0.00 0.00 33 1013.5
20260502210038 66 350 2.0 0.0 0.00 0.00 0.00 36 1013.7
20260502204534 64 187 5.0 0.0 0.00 0.00 0.00 36 1013.9
20260502203035 65 314 4.0 0.0 0.00 0.00 0.00 34 1014.0
20260502201531 64 238 3.0 0.0 0.00 0.00 0.00 36 1014.1
20260502200031 64 304 5.0 0.0 0.00 0.00 0.00 37 1014.2
20260502194533 64 32 2.0 0.0 0.00 0.00 0.00 38 1014.3
20260502193032 63 76 6.0 0.0 0.00 0.00 0.00 39 1014.6
20260502191530 62 330 4.0 0.0 0.00 0.00 0.00 40 1014.9
20260502190037 62 261 4.0 0.0 0.00 0.00 0.00 39 1015.1
20260502184528 62 305 6.0 0.0 0.00 0.00 0.00 39 1015.2
20260502183029 62 14 2.0 0.0 0.00 0.00 0.00 38 1015.1
20260502181535 63 42 5.0 0.0 0.00 0.00 0.00 39 1015.2
20260502163028 60 337 5.0 0.0 0.00 0.00 0.00 44 1015.9
20260502161521 60 19 5.0 0.0 0.00 0.00 0.00 43 1015.9
20260502151521 57 319 10.0 0.0 0.00 0.00 0.00 49 1015.9
20260502123049 45 319 9.0 0.0 0.00 0.00 0.00 60 1015.0
20260502121540 46 329 6.0 0.0 0.00 0.00 0.00 56 1014.9
20260502114536 45 348 6.0 0.0 0.00 0.00 0.00 56 1014.5
20260502113035 46 340 8.0 0.0 0.00 0.00 0.00 55 1014.4
20260502111535 45 336 8.0 0.0 0.00 0.00 0.00 56 1014.1
20260502110030 44 334 7.0 0.0 0.00 0.00 0.00 57 1013.8
20260502104531 46 334 9.0 0.0 0.00 0.00 0.00 54 1013.3
20260502103022 47 342 10.0 0.0 0.00 0.00 0.00 54 1013.0
20260502101519 48 355 11.0 0.0 0.00 0.00 0.00 53 1012.8
20260502091510 49 302 10.0 0.0 0.00 0.00 0.00 49 1011.9
20260502070059 50 291 8.0 0.0 0.00 0.00 0.00 41 1011.7
20260502064606 50 291 9.0 0.0 0.00 0.00 0.00 41 1011.6
20260502063051 50 303 7.0 0.0 0.00 0.00 0.00 40 1011.5
20260502061604 50 311 6.0 0.0 0.00 0.00 0.00 40 1011.5
20260502060046 50 343 7.0 0.0 0.00 0.00 0.00 40 1011.4
20260502054546 50 320 6.0 0.0 0.00 0.00 0.00 38 1011.3
20260502053047 50 338 6.0 0.0 0.00 0.00 0.00 38 1011.2
20260502051545 52 296 10.0 0.0 0.00 0.00 0.00 37 1011.2
20260502050045 51 299 8.0 0.0 0.00 0.00 0.00 36 1011.0
20260502044545 52 289 8.0 0.0 0.00 0.00 0.00 35 1011.0
20260502043047 53 308 8.0 0.0 0.00 0.00 0.00 33 1010.9
20260502041547 56 303 9.0 0.0 0.00 0.00 0.00 30 1010.9
20260502040044 58 297 11.0 0.0 0.00 0.00 0.00 29 1010.8
20260502034545 60 277 13.0 0.0 0.00 0.00 0.00 27 1010.7
20260502033041 60 283 13.0 0.0 0.00 0.00 0.00 26 1010.6
20260502031543 61 262 11.0 0.0 0.00 0.00 0.00 25 1010.5
20260502030041 62 257 8.0 0.0 0.00 0.00 0.00 23 1010.4
20260502024545 64 251 6.0 0.0 0.00 0.00 0.00 21 1010.2
20260502023040 66 219 7.0 0.0 0.00 0.00 0.00 20 1010.1
20260502021540 68 242 9.0 0.0 0.00 0.00 0.00 19 1010.0
20260502020041 69 250 11.0 0.0 0.00 0.00 0.00 18 1009.9
20260502014539 70 254 8.0 0.0 0.00 0.00 0.00 17 1009.9
20260502013040 70 207 8.0 0.0 0.00 0.00 0.00 17 1010.0
20260502011538 71 234 11.0 0.0 0.00 0.00 0.00 16 1010.0
20260502010036 72 231 9.0 0.0 0.00 0.00 0.00 15 1010.0